AirNav   ProFlight Series 2 Aviation Headset
 
 734 users online  

2PA9 Wilson Heliport
Lansdale, Pennsylvania, USA

GOING TO LANSDALE?


FAA INFORMATION EFFECTIVE 18 JUNE 2020

Location

FAA Identifier: 2PA9
Lat/Long: 40-12-00.3840N 075-17-58.6370W
40-12.006400N 075-17.977283W
40.2001067,-75.2996214
(estimated)
Elevation: 460 ft. / 140 m (estimated)
Variation: 11W (1985)
From city: 3 miles N of LANSDALE, PA
Time zone: UTC -4 (UTC -5 during Standard Time)
Zip code: 19446

Heliport Operations

Heliport use: Private use. Permission required prior to landing
Activation date: 03/1961
Control tower: no
ARTCC: NEW YORK CENTER
FSS: WILLIAMSPORT FLIGHT SERVICE STATION
Attendance: UNATNDD
Wind indicator: yes
Segmented circle: no

Heliport Communications

WX AWOS-3 at LOM (4 nm SE): 118.925 (215-646-1068)
WX AWOS-3 at CKZ (11 nm N): 126.325 (215-257-7291)
WX ASOS at DYL (11 nm NE): 118.875 (215-345-0392)
WX ASOS at PTW (12 nm W): 119.425 (610-495-0823)
WX AWOS-3 at UKT (15 nm N): 119.475 (215-538-7610)
WX ASOS at PNE (15 nm SE): 121.15 (215-677-0146)
WX AWOS-3T at OQN (18 nm SW): 121.4 ((610) 692-6190)
WX ASOS at PHL (20 nm S): PHONE 215-492-9617

Nearby radio navigation aids

VOR radial/distance  VOR name  Freq  Var
PTWr105/12.0POTTSTOWN VORTAC116.5009W
ARDr270/18.2YARDLEY VOR/DME108.2010W
MXEr054/24.0MODENA VORTAC113.2009W
ETXr151/28.8EAST TEXAS VOR/DME110.2009W
FJCr177/32.4ALLENTOWN VORTAC117.5010W
OODr010/33.8WOODSTOWN VORTAC112.8010W
GXUr302/34.2MC GUIRE VORTAC110.6012W
SBJr238/34.3SOLBERG VOR/DME112.9010W
DQOr034/34.4DUPONT VORTAC114.0010W
RBVr280/36.9ROBBINSVILLE VORTAC113.8010W

 
NDB name  Hdg/Dist  Freq  Var  ID
AMBLER004/4.527512WING .. -. --.

Heliport Services

Airframe service: NONE
Powerplant service: NONE

Runway Information

Helipad H1

Dimensions: 200 x 400 ft. / 61 x 122 m
Surface: turf, in fair condition
Latitude: 40-12.006400N
Longitude: 075-17.977283W
Elevation: 460.0 ft.
Traffic pattern: leftleft
Markings: none, in fair condition

Heliport Ownership and Management from official FAA records

Ownership: Privately-owned
Owner: A. JAMES WILSON
2125 BETHEL ROAD
LANSDALE, PA 19446
Phone 215-699-3816
Manager: A. JAMES WILSON
2125 BETHEL ROAD
LANSDALE, PA 19446
Phone 215-699-3816

Heliport Operational Statistics

Aircraft based on the field: 1
Helicopters: 1
    

Additional Remarks

FOR CD CTC PHILADELPHIA APCH AT 800-354-9884.

Instrument Procedures

There are no published instrument procedures at 2PA9.

Some nearby airports with instrument procedures:

KLOM - Wings Field Airport (4 nm SE)
N10 - Perkiomen Valley Airport (6 nm W)
KCKZ - Pennridge Airport (11 nm N)
KDYL - Doylestown Airport (11 nm NE)
KPTW - Heritage Field Airport (12 nm W)
KUKT - Quakertown Airport (15 nm N)
KPNE - Northeast Philadelphia Airport (15 nm SE)
N47 - Pottstown Municipal Airport (17 nm W)
KOQN - Brandywine Regional Airport (18 nm SW)
KPHL - Philadelphia International Airport (20 nm S)
 
Loc | Ops | Rwys | IFR | FBO | Links
Com | Nav | Svcs | Stats | Notes
Area around 2PA9 (Wilson Heliport)
 
Road maps at: MapQuest Bing Google
 
Aerial photo
No photo
 
Sectional chart

 
Airport distance calculator
Flying to Wilson Heliport? Find the distance to fly.

From to 2PA9

Sunrise and sunset
Times for 10-Jul-2020
 Local
(UTC-4)
 Zulu
(UTC)
Morning civil twilight05:1009:10
Sunrise05:4209:42
Sunset20:3100:31
Evening civil twilight21:0301:03

Current date and time
Zulu (UTC)  11-Jul-2020 03:34:25
Local (UTC-4)  10-Jul-2020 23:34:25
 
METAR
KLOM 
4nm SE 
110315Z AUTO 24008KT 10SM BKN008 OVC020 22/22 A2969 RMK AO2 P0001 T02230218
KCKZ 
11nm N 
110315Z AUTO 25009G16KT 3SM BR OVC006 22/22 A2968 RMK AO2
KDYL 
12nm NE 
110254Z AUTO 24007KT 10SM -RA BKN006 OVC010 23/22 A2965 RMK AO2 RAB14 SLP033 P0001 60002 T02280217 53017
KPTW 
12nm W 
110319Z AUTO 25005KT 10SM SCT019 SCT025 BKN060 22/21 A2970 RMK AO2 RAE01 P0000 T02170211
KUKT 
15nm N 
110315Z AUTO 23007KT 7SM BKN009 OVC014 22/22 A2967 RMK A01
KPNE 
15nm SE 
110254Z AUTO 24010KT 10SM OVC012 23/22 A2968 RMK AO2 RAE0159 SLP050 P0000 60002 T02280222 53027
KOQN 
18nm SW 
110315Z AUTO 24007KT 10SM BKN014 BKN022 OVC028 22/21 A2972 RMK AO2
TAF
KPNE 
15nm SE 
110215Z 1102/1124 23010KT P6SM OVC020 TEMPO 1102/1105 3SM -SHRA OVC007 FM110500 26006KT P6SM BKN025 FM110900 22006KT P6SM SCT080 FM111300 21008KT P6SM BKN080
NOTAMs
Click for the latest NOTAMs
NOTAMs are issued by the DoD/FAA and will open in a separate window not controlled by AirNav.

 

 
 

Would you like to see your business listed on this page?

 If your business provides an interesting product or service to pilots, flight crews, aircraft, or users of the Wilson Heliport, you should consider listing it here.  To start the listing process, click on the button below
 
Add a business
 

Other Pages about Wilson Heliport

Update a link
 
Copyright © AirNav, LLC. All rights reserved. Privacy Policy  Contact